Weather History for Audubon, IA

Change the Weather History Date:

Saturday, March 23, 2013

  Actual Average Record
Temperature  
Mean Temperature 30 °F -  
Max Temperature 35 °F 51 °F 75 °F (1963)
Min Temperature 24 °F 27 °F 4 °F (1965)
Degree Days  
Heating Degree Days 36    
Moisture  
Dew Point 23 °F    
Average Humidity 75    
Maximum Humidity 93    
Minimum Humidity 52    
Precipitation  
Precipitation 0.00 in - - ()
Sea Level Pressure  
Sea Level Pressure 30.07 in    
Wind  
Wind Speed 6 mph (NNE)    
Max Wind Speed 16 mph    
Max Gust Speed 20 mph    
Visibility 10 miles    
Events      
Averages and records for this station are not official NWS values.
T = Trace of Precipitation, MM = Missing Value Source: NWS Daily Summary

Daily Weather History Graph

Daily Weather History Graph

Search for Another Location

Airport:

Trip Planner

Search our weather history database for the weather conditions in past years. The results will help you decide how hot, cold, wet, or windy it might be!

Date:

Astronomy

Mar. 23, 2013 Rise Set
Actual Time 7:17 AM CDT 7:35 PM CDT
Civil Twilight 6:49 AM CDT 8:03 PM CDT
Nautical Twilight 6:17 AM CDT 8:36 PM CDT
Astronomical Twilight 5:43 AM CDT 9:09 PM CDT
Moon 4:00 PM CDT (3/23) 4:57 AM CDT (3/23)
Length of Visible Light 13h 13m
Length of Day
12h 18m
Waxing Gibbous, 85% of the Moon is Illuminated
Mar 23
Waxing Gibbous
Mar 27
Full
Apr 2
Last Quarter
Apr 10
New
Apr 18
First Quarter

Hourly Weather History & Observations

Time (CDT) Temp. Windchill Dew Point Humidity Pressure Visibility Wind Dir Wind Speed Gust Speed Precip Events Conditions
12:15 AM 28.4 °F 23.3 °F 24.8 °F 86% 30.04 in 10.0 mi NE 4.6 mph - N/A   Scattered Clouds
12:35 AM 28.4 °F - 23.0 °F 80% 30.05 in 10.0 mi Calm Calm - N/A   Clear
12:55 AM 26.6 °F - 23.0 °F 86% 30.03 in 10.0 mi Calm Calm - N/A   Mostly Cloudy
1:15 AM 28.4 °F 24.6 °F 24.8 °F 86% 30.05 in 10.0 mi ENE 3.5 mph - N/A   Overcast
1:35 AM 26.6 °F - 23.0 °F 86% 30.04 in 10.0 mi Calm Calm - N/A   Scattered Clouds
2:15 AM 26.6 °F - 24.8 °F 93% 30.06 in 10.0 mi Calm Calm - N/A   Mostly Cloudy
2:35 AM 28.4 °F - 24.8 °F 86% 30.08 in 10.0 mi Calm Calm - N/A   Overcast
3:15 AM 28.4 °F 24.6 °F 24.8 °F 86% 30.07 in 10.0 mi NNE 3.5 mph - N/A   Overcast
3:35 AM 28.4 °F 23.3 °F 24.8 °F 86% 30.06 in 10.0 mi NNE 4.6 mph - N/A   Overcast
3:55 AM 26.6 °F 21.2 °F 24.8 °F 93% 30.05 in 10.0 mi NE 4.6 mph - N/A   Mostly Cloudy
4:15 AM 26.6 °F 22.6 °F 23.0 °F 86% 30.04 in 10.0 mi NE 3.5 mph - N/A   Scattered Clouds
4:35 AM 26.6 °F - 23.0 °F 86% 30.05 in 10.0 mi Calm Calm - N/A   Scattered Clouds
4:55 AM 26.6 °F - 23.0 °F 86% 30.04 in 7.0 mi Calm Calm - N/A   Scattered Clouds
5:15 AM 26.6 °F - 23.0 °F 86% 30.04 in 7.0 mi Calm Calm - N/A   Clear
5:35 AM 26.6 °F - 23.0 °F 86% 30.06 in 10.0 mi Calm Calm - N/A   Clear
5:55 AM 26.6 °F - 23.0 °F 86% 30.06 in 10.0 mi Calm Calm - N/A   Clear
6:15 AM 26.6 °F - 23.0 °F 86% 30.07 in 7.0 mi Calm Calm - N/A   Clear
6:35 AM 26.6 °F - 21.2 °F 80% 30.08 in 7.0 mi Calm Calm - N/A   Clear
6:55 AM 26.6 °F - 23.0 °F 86% 30.08 in 7.0 mi Calm Calm - N/A   Clear
7:15 AM 24.8 °F 20.5 °F 21.2 °F 86% 30.08 in 7.0 mi North 3.5 mph - N/A   Clear
7:35 AM 26.6 °F 22.6 °F 23.0 °F 86% 30.09 in 7.0 mi North 3.5 mph - N/A   Clear
7:55 AM 26.6 °F - 23.0 °F 86% 30.09 in 7.0 mi Calm Calm - N/A   Clear
8:15 AM 26.6 °F 21.2 °F 23.0 °F 86% 30.09 in 7.0 mi NNE 4.6 mph - N/A   Clear
8:35 AM 26.6 °F 19.1 °F 24.8 °F 93% 30.09 in 10.0 mi NNE 6.9 mph - N/A   Clear
8:55 AM 26.6 °F 17.5 °F 24.8 °F 93% 30.09 in 10.0 mi NNE 9.2 mph - N/A   Clear
9:15 AM 28.4 °F 19.7 °F 24.8 °F 86% 30.10 in 10.0 mi NNE 9.2 mph - N/A   Clear
9:35 AM 28.4 °F 20.4 °F 24.8 °F 86% 30.10 in 10.0 mi NE 8.1 mph - N/A   Clear
9:55 AM 28.4 °F 20.4 °F 24.8 °F 86% 30.10 in 10.0 mi NNE 8.1 mph - N/A   Clear
10:15 AM 28.4 °F 18.5 °F 23.0 °F 80% 30.10 in 10.0 mi NE 11.5 mph - N/A   Scattered Clouds
10:35 AM 30.2 °F 21.3 °F 23.0 °F 75% 30.11 in 10.0 mi NE 10.4 mph - N/A   Scattered Clouds
10:55 AM 30.2 °F 21.3 °F 23.0 °F 75% 30.12 in 10.0 mi NNE 10.4 mph - N/A   Scattered Clouds
11:15 AM 30.2 °F 21.9 °F 21.2 °F 69% 30.12 in 10.0 mi NNE 9.2 mph - N/A   Mostly Cloudy
11:35 AM 30.2 °F 23.4 °F 21.2 °F 69% 30.13 in 10.0 mi NE 6.9 mph - N/A   Scattered Clouds
11:55 AM 32.0 °F 24.8 °F 21.2 °F 64% 30.12 in 10.0 mi NE 8.1 mph - N/A   Clear
12:15 PM 32.0 °F 24.8 °F 21.2 °F 64% 30.11 in 10.0 mi NNE 8.1 mph - N/A   Scattered Clouds
12:35 PM 33.8 °F 26.4 °F 23.0 °F 65% 30.11 in 10.0 mi NE 9.2 mph - N/A   Clear
12:55 PM 35.6 °F 27.5 °F 23.0 °F 60% 30.09 in 10.0 mi NE 11.5 mph 19.6 mph N/A   Clear
1:15 PM 35.6 °F 27.5 °F 21.2 °F 56% 30.08 in 10.0 mi NE 11.5 mph - N/A   Mostly Cloudy
1:35 PM 35.6 °F 27.5 °F 21.2 °F 56% 30.08 in 10.0 mi NE 11.5 mph 16.1 mph N/A   Scattered Clouds
1:55 PM 35.6 °F 28.6 °F 19.4 °F 52% 30.08 in 10.0 mi NE 9.2 mph - N/A   Scattered Clouds
2:15 PM 35.6 °F 28.0 °F 19.4 °F 52% 30.07 in 10.0 mi ENE 10.4 mph - N/A   Mostly Cloudy
2:35 PM 35.6 °F 28.0 °F 19.4 °F 52% 30.05 in 10.0 mi NE 10.4 mph - N/A   Overcast
2:55 PM 35.6 °F 28.0 °F 19.4 °F 52% 30.05 in 10.0 mi NNE 10.4 mph - N/A   Mostly Cloudy
3:15 PM 35.6 °F 27.5 °F 19.4 °F 52% 30.04 in 10.0 mi NE 11.5 mph - N/A   Scattered Clouds
3:35 PM 35.6 °F 27.1 °F 19.4 °F 52% 30.03 in 10.0 mi NE 12.7 mph 17.3 mph N/A   Scattered Clouds
3:55 PM 35.6 °F 28.0 °F 19.4 °F 52% 30.04 in 10.0 mi NNE 10.4 mph - N/A   Mostly Cloudy
4:15 PM 35.6 °F 27.5 °F 19.4 °F 52% 30.04 in 10.0 mi NNE 11.5 mph - N/A   Mostly Cloudy
4:35 PM 33.8 °F 24.8 °F 19.4 °F 56% 30.03 in 10.0 mi NNE 12.7 mph 17.3 mph N/A   Mostly Cloudy
4:55 PM 33.8 °F 25.8 °F 21.2 °F 60% 30.04 in 10.0 mi NNE 10.4 mph - N/A   Overcast
5:15 PM 33.8 °F 25.3 °F 21.2 °F 60% 30.04 in 10.0 mi NNE 11.5 mph - N/A   Overcast
5:35 PM 33.8 °F 26.4 °F 21.2 °F 60% 30.05 in 10.0 mi North 9.2 mph - N/A   Overcast
5:55 PM 33.8 °F 24.8 °F 21.2 °F 60% 30.05 in 10.0 mi North 12.7 mph - N/A   Mostly Cloudy
6:15 PM 33.8 °F 24.8 °F 23.0 °F 65% 30.05 in 10.0 mi North 12.7 mph 17.3 mph N/A   Scattered Clouds
6:35 PM 32.0 °F 22.5 °F 23.0 °F 69% 30.05 in 10.0 mi North 12.7 mph 18.4 mph N/A   Scattered Clouds
6:55 PM 32.0 °F 23.0 °F 23.0 °F 69% 30.05 in 10.0 mi North 11.5 mph - N/A   Mostly Cloudy
7:15 PM 32.0 °F 22.1 °F 24.8 °F 75% 30.06 in 7.0 mi North 13.8 mph 17.3 mph N/A   Scattered Clouds
7:35 PM 30.2 °F 18.9 °F 24.8 °F 80% 30.06 in 7.0 mi North 16.1 mph - N/A   Scattered Clouds
7:55 PM 30.2 °F 20.2 °F 24.8 °F 80% 30.07 in 10.0 mi North 12.7 mph - N/A   Mostly Cloudy
8:15 PM 30.2 °F 20.8 °F 24.8 °F 80% 30.07 in 10.0 mi North 11.5 mph 18.4 mph N/A   Overcast
8:35 PM 30.2 °F 20.8 °F 24.8 °F 80% 30.08 in 10.0 mi North 11.5 mph 18.4 mph N/A   Mostly Cloudy
8:55 PM 30.2 °F 19.3 °F 24.8 °F 80% 30.08 in 10.0 mi North 15.0 mph 19.6 mph N/A   Mostly Cloudy
9:15 PM 30.2 °F 20.2 °F 23.0 °F 75% 30.08 in 10.0 mi North 12.7 mph 18.4 mph N/A   Overcast
9:35 PM 30.2 °F 19.8 °F 23.0 °F 75% 30.08 in 10.0 mi North 13.8 mph - N/A   Overcast
9:55 PM 30.2 °F 19.8 °F 23.0 °F 75% 30.08 in 10.0 mi North 13.8 mph 18.4 mph N/A   Overcast
10:15 PM 30.2 °F 20.2 °F 23.0 °F 75% 30.07 in 10.0 mi North 12.7 mph 16.1 mph N/A   Overcast
10:35 PM 30.2 °F 20.2 °F 23.0 °F 75% 30.06 in 10.0 mi North 12.7 mph - N/A   Overcast
10:55 PM 28.4 °F 19.7 °F 23.0 °F 80% 30.06 in 10.0 mi North 9.2 mph - N/A   Scattered Clouds
11:15 PM 28.4 °F 19.1 °F 23.0 °F 80% 30.05 in 10.0 mi North 10.4 mph - N/A   Scattered Clouds
11:35 PM 28.4 °F 20.4 °F 23.0 °F 80% 30.05 in 10.0 mi North 8.1 mph - N/A   Scattered Clouds
11:55 PM 28.4 °F 18.5 °F 24.8 °F 86% 30.04 in 10.0 mi North 11.5 mph 17.3 mph N/A   Mostly Cloudy